Information on these data can be found in provided Readme document
Contact Info: Zachary Fasnacht (zachary.fasnacht@ssaihq.com); Nickolay Krotkov (nickolay.a.krotkov@nasa.gov); Lok Lamsal (lok.lamsal@nasa.gov)

FillValue: -999.
ScaleFactor: 1e15
Units: molecules/cm^2

Date(yyyy-mm-dd),City,Country,LonCenter,LatCenter,BoundingCoordinates,Median,Q1,Q3,Mean,Baseline_Median,Baseline_Q1,Baseline_Q3,Baseline_Mean,NumGoodSamples,NumTotalSamples
2015-01-01,LasVegas,USA,-115.1398,36.1699,[-115.6398 35.6699 -114.6398 36.6699],1.315,0.618,2.429,1.682,1.548,0.713,2.62,1.793,244.0,593.0
2015-01-02,LasVegas,USA,-115.1398,36.1699,[-115.6398 35.6699 -114.6398 36.6699],1.365,0.654,2.429,1.706,1.646,0.805,2.765,1.891,231.0,600.0
2015-01-03,LasVegas,USA,-115.1398,36.1699,[-115.6398 35.6699 -114.6398 36.6699],1.405,0.711,2.525,1.828,1.662,0.812,2.755,1.93,253.0,598.0
2015-01-04,LasVegas,USA,-115.1398,36.1699,[-115.6398 35.6699 -114.6398 36.6699],1.623,0.85,2.573,1.97,1.694,0.888,2.829,1.972,220.0,594.0
2015-01-05,LasVegas,USA,-115.1398,36.1699,[-115.6398 35.6699 -114.6398 36.6699],1.689,0.881,2.647,2.072,1.664,0.921,2.7,1.924,231.0,589.0
2015-01-06,LasVegas,USA,-115.1398,36.1699,[-115.6398 35.6699 -114.6398 36.6699],1.92,0.954,2.919,2.247,1.731,0.99,2.865,2.0,192.0,589.0
2015-01-07,LasVegas,USA,-115.1398,36.1699,[-115.6398 35.6699 -114.6398 36.6699],1.784,0.921,2.608,2.096,1.587,0.939,2.533,1.851,232.0,588.0
2015-01-08,LasVegas,USA,-115.1398,36.1699,[-115.6398 35.6699 -114.6398 36.6699],1.784,0.921,2.608,2.096,1.641,0.994,2.524,1.888,232.0,594.0
2015-01-09,LasVegas,USA,-115.1398,36.1699,[-115.6398 35.6699 -114.6398 36.6699],1.816,0.958,2.608,2.121,1.771,1.016,2.573,1.983,202.0,557.0
2015-01-10,LasVegas,USA,-115.1398,36.1699,[-115.6398 35.6699 -114.6398 36.6699],1.855,0.965,2.664,2.18,1.813,1.03,2.609,2.017,220.0,563.0
2015-01-11,LasVegas,USA,-115.1398,36.1699,[-115.6398 35.6699 -114.6398 36.6699],1.816,0.965,2.647,2.132,1.757,1.025,2.605,1.962,197.0,566.0
2015-01-12,LasVegas,USA,-115.1398,36.1699,[-115.6398 35.6699 -114.6398 36.6699],1.828,0.965,2.647,2.181,1.758,1.007,2.574,1.952,219.0,556.0
2015-01-13,LasVegas,USA,-115.1398,36.1699,[-115.6398 35.6699 -114.6398 36.6699],1.766,0.954,2.647,2.2,1.734,0.996,2.569,1.958,182.0,548.0
2015-01-14,LasVegas,USA,-115.1398,36.1699,[-115.6398 35.6699 -114.6398 36.6699],1.556,0.958,2.309,2.023,1.672,1.003,2.469,1.929,217.0,546.0
2015-01-15,LasVegas,USA,-115.1398,36.1699,[-115.6398 35.6699 -114.6398 36.6699],1.672,1.149,2.469,2.198,1.727,1.087,2.588,1.987,182.0,553.0
2015-01-16,LasVegas,USA,-115.1398,36.1699,[-115.6398 35.6699 -114.6398 36.6699],1.672,1.077,2.558,2.087,1.686,1.054,2.599,1.974,194.0,552.0
2015-01-17,LasVegas,USA,-115.1398,36.1699,[-115.6398 35.6699 -114.6398 36.6699],1.672,1.077,2.607,2.085,1.614,0.976,2.471,1.906,208.0,552.0
2015-01-18,LasVegas,USA,-115.1398,36.1699,[-115.6398 35.6699 -114.6398 36.6699],1.666,1.076,2.358,1.942,1.658,1.047,2.407,1.884,196.0,559.0
2015-01-19,LasVegas,USA,-115.1398,36.1699,[-115.6398 35.6699 -114.6398 36.6699],1.666,1.076,2.399,2.02,1.704,1.048,2.503,1.936,209.0,558.0
2015-01-20,LasVegas,USA,-115.1398,36.1699,[-115.6398 35.6699 -114.6398 36.6699],1.624,1.046,2.342,1.91,1.743,1.055,2.561,1.958,198.0,554.0
2015-01-21,LasVegas,USA,-115.1398,36.1699,[-115.6398 35.6699 -114.6398 36.6699],1.666,1.054,2.394,1.976,1.694,1.023,2.536,1.943,220.0,552.0
2015-01-22,LasVegas,USA,-115.1398,36.1699,[-115.6398 35.6699 -114.6398 36.6699],1.648,1.077,2.615,2.098,1.725,1.061,2.625,2.007,180.0,553.0
2015-01-23,LasVegas,USA,-115.1398,36.1699,[-115.6398 35.6699 -114.6398 36.6699],1.648,1.077,2.615,2.098,1.749,1.026,2.616,2.005,180.0,551.0
2015-01-24,LasVegas,USA,-115.1398,36.1699,[-115.6398 35.6699 -114.6398 36.6699],1.648,1.077,2.615,2.098,1.793,1.075,2.655,2.039,180.0,595.0
2015-01-25,LasVegas,USA,-115.1398,36.1699,[-115.6398 35.6699 -114.6398 36.6699],1.563,0.959,2.394,1.866,1.799,1.082,2.635,2.04,196.0,598.0
2015-01-26,LasVegas,USA,-115.1398,36.1699,[-115.6398 35.6699 -114.6398 36.6699],1.563,0.983,2.399,1.937,1.789,1.098,2.646,2.057,225.0,604.0
2015-01-27,LasVegas,USA,-115.1398,36.1699,[-115.6398 35.6699 -114.6398 36.6699],1.55,0.983,2.394,1.869,1.787,1.084,2.648,2.031,203.0,605.0
2015-01-28,LasVegas,USA,-115.1398,36.1699,[-115.6398 35.6699 -114.6398 36.6699],1.572,1.035,2.563,1.972,1.753,1.068,2.623,2.007,224.0,596.0
2015-01-29,LasVegas,USA,-115.1398,36.1699,[-115.6398 35.6699 -114.6398 36.6699],1.666,1.024,2.838,2.13,1.776,1.048,2.67,2.033,189.0,589.0
2015-01-30,LasVegas,USA,-115.1398,36.1699,[-115.6398 35.6699 -114.6398 36.6699],1.633,1.062,2.788,2.084,1.732,1.015,2.625,2.001,213.0,589.0
2015-01-31,LasVegas,USA,-115.1398,36.1699,[-115.6398 35.6699 -114.6398 36.6699],1.593,1.04,2.695,2.097,1.735,1.04,2.581,1.971,177.0,594.0
2015-02-01,LasVegas,USA,-115.1398,36.1699,[-115.6398 35.6699 -114.6398 36.6699],1.48,0.902,2.394,1.902,1.738,1.041,2.596,1.996,191.0,593.0
2015-02-02,LasVegas,USA,-115.1398,36.1699,[-115.6398 35.6699 -114.6398 36.6699],1.456,0.873,2.522,1.889,1.737,1.012,2.622,2.001,204.0,594.0
2015-02-03,LasVegas,USA,-115.1398,36.1699,[-115.6398 35.6699 -114.6398 36.6699],1.454,0.873,2.211,1.779,1.693,1.005,2.451,1.939,201.0,599.0
2015-02-04,LasVegas,USA,-115.1398,36.1699,[-115.6398 35.6699 -114.6398 36.6699],1.424,0.873,2.202,1.756,1.649,0.982,2.435,1.888,228.0,598.0
2015-02-05,LasVegas,USA,-115.1398,36.1699,[-115.6398 35.6699 -114.6398 36.6699],1.412,0.873,2.025,1.674,1.662,1.017,2.51,1.929,206.0,592.0
2015-02-06,LasVegas,USA,-115.1398,36.1699,[-115.6398 35.6699 -114.6398 36.6699],1.382,0.873,2.085,1.695,1.624,1.013,2.454,1.876,240.0,588.0
2015-02-07,LasVegas,USA,-115.1398,36.1699,[-115.6398 35.6699 -114.6398 36.6699],1.382,0.873,2.085,1.695,1.642,1.024,2.477,1.891,240.0,588.0
2015-02-08,LasVegas,USA,-115.1398,36.1699,[-115.6398 35.6699 -114.6398 36.6699],1.395,0.886,2.056,1.675,1.603,0.97,2.354,1.798,280.0,587.0
2015-02-09,LasVegas,USA,-115.1398,36.1699,[-115.6398 35.6699 -114.6398 36.6699],1.421,0.93,2.056,1.74,1.61,0.989,2.421,1.8,246.0,589.0
2015-02-10,LasVegas,USA,-115.1398,36.1699,[-115.6398 35.6699 -114.6398 36.6699],1.387,0.902,2.025,1.656,1.603,0.959,2.417,1.792,217.0,552.0
2015-02-11,LasVegas,USA,-115.1398,36.1699,[-115.6398 35.6699 -114.6398 36.6699],1.421,0.902,2.085,1.727,1.699,1.022,2.424,1.839,247.0,556.0
2015-02-12,LasVegas,USA,-115.1398,36.1699,[-115.6398 35.6699 -114.6398 36.6699],1.382,0.886,1.905,1.605,1.69,1.034,2.457,1.834,226.0,555.0
2015-02-13,LasVegas,USA,-115.1398,36.1699,[-115.6398 35.6699 -114.6398 36.6699],1.442,0.902,2.051,1.746,1.728,1.083,2.491,1.882,248.0,545.0
2015-02-14,LasVegas,USA,-115.1398,36.1699,[-115.6398 35.6699 -114.6398 36.6699],1.387,0.873,2.051,1.724,1.746,1.052,2.488,1.882,224.0,539.0
2015-02-15,LasVegas,USA,-115.1398,36.1699,[-115.6398 35.6699 -114.6398 36.6699],1.387,0.873,2.051,1.724,1.722,1.052,2.516,1.881,224.0,540.0
2015-02-16,LasVegas,USA,-115.1398,36.1699,[-115.6398 35.6699 -114.6398 36.6699],1.546,0.954,2.38,1.935,1.758,1.043,2.571,1.903,186.0,547.0
2015-02-17,LasVegas,USA,-115.1398,36.1699,[-115.6398 35.6699 -114.6398 36.6699],1.442,0.954,2.051,1.776,1.704,1.044,2.468,1.845,198.0,546.0
2015-02-18,LasVegas,USA,-115.1398,36.1699,[-115.6398 35.6699 -114.6398 36.6699],1.442,0.946,2.098,1.877,1.789,1.077,2.536,1.928,212.0,548.0
2015-02-19,LasVegas,USA,-115.1398,36.1699,[-115.6398 35.6699 -114.6398 36.6699],1.475,0.954,2.123,1.894,1.824,1.085,2.56,1.96,194.0,554.0
2015-02-20,LasVegas,USA,-115.1398,36.1699,[-115.6398 35.6699 -114.6398 36.6699],1.539,0.954,2.347,1.986,1.855,1.101,2.568,1.952,219.0,553.0
2015-02-21,LasVegas,USA,-115.1398,36.1699,[-115.6398 35.6699 -114.6398 36.6699],1.546,0.964,2.347,2.002,1.884,1.097,2.601,1.979,185.0,548.0
2015-02-22,LasVegas,USA,-115.1398,36.1699,[-115.6398 35.6699 -114.6398 36.6699],1.546,0.964,2.347,2.002,1.874,1.129,2.562,1.957,185.0,544.0
2015-02-23,LasVegas,USA,-115.1398,36.1699,[-115.6398 35.6699 -114.6398 36.6699],1.691,0.964,2.433,2.174,1.806,1.049,2.589,1.952,145.0,544.0
2015-02-24,LasVegas,USA,-115.1398,36.1699,[-115.6398 35.6699 -114.6398 36.6699],1.704,1.017,2.618,2.224,1.781,1.063,2.57,1.933,162.0,544.0
2015-02-25,LasVegas,USA,-115.1398,36.1699,[-115.6398 35.6699 -114.6398 36.6699],1.704,1.017,2.618,2.224,1.748,1.047,2.528,1.893,162.0,588.0
2015-02-26,LasVegas,USA,-115.1398,36.1699,[-115.6398 35.6699 -114.6398 36.6699],1.729,1.039,2.47,2.101,1.722,1.038,2.489,1.86,168.0,593.0
2015-02-27,LasVegas,USA,-115.1398,36.1699,[-115.6398 35.6699 -114.6398 36.6699],1.694,1.034,2.425,2.037,1.731,1.035,2.474,1.862,197.0,600.0
2015-02-28,LasVegas,USA,-115.1398,36.1699,[-115.6398 35.6699 -114.6398 36.6699],1.539,1.017,2.123,1.892,1.607,0.964,2.343,1.77,175.0,600.0
2015-03-01,LasVegas,USA,-115.1398,36.1699,[-115.6398 35.6699 -114.6398 36.6699],1.475,0.977,2.098,1.812,1.642,1.006,2.38,1.788,196.0,590.0
2015-03-02,LasVegas,USA,-115.1398,36.1699,[-115.6398 35.6699 -114.6398 36.6699],1.475,0.977,2.098,1.812,1.643,1.01,2.422,1.807,196.0,583.0
2015-03-03,LasVegas,USA,-115.1398,36.1699,[-115.6398 35.6699 -114.6398 36.6699],1.704,0.99,2.542,1.893,1.709,1.035,2.517,1.842,232.0,580.0
2015-03-04,LasVegas,USA,-115.1398,36.1699,[-115.6398 35.6699 -114.6398 36.6699],1.821,1.047,2.813,2.067,1.722,1.016,2.558,1.865,197.0,586.0
2015-03-05,LasVegas,USA,-115.1398,36.1699,[-115.6398 35.6699 -114.6398 36.6699],1.705,1.017,2.618,1.878,1.667,1.007,2.46,1.778,209.0,585.0
2015-03-06,LasVegas,USA,-115.1398,36.1699,[-115.6398 35.6699 -114.6398 36.6699],1.694,0.99,2.618,1.851,1.677,1.009,2.394,1.763,223.0,587.0
2015-03-07,LasVegas,USA,-115.1398,36.1699,[-115.6398 35.6699 -114.6398 36.6699],1.604,0.99,2.542,1.739,1.595,0.97,2.275,1.665,208.0,593.0
2015-03-08,LasVegas,USA,-115.1398,36.1699,[-115.6398 35.6699 -114.6398 36.6699],1.59,0.966,2.542,1.731,1.576,0.959,2.261,1.638,234.0,592.0
2015-03-09,LasVegas,USA,-115.1398,36.1699,[-115.6398 35.6699 -114.6398 36.6699],1.59,0.966,2.542,1.731,1.573,0.942,2.267,1.636,234.0,589.0
2015-03-10,LasVegas,USA,-115.1398,36.1699,[-115.6398 35.6699 -114.6398 36.6699],1.604,0.977,2.549,1.745,1.668,1.05,2.373,1.714,244.0,585.0
2015-03-11,LasVegas,USA,-115.1398,36.1699,[-115.6398 35.6699 -114.6398 36.6699],1.543,0.94,2.542,1.678,1.643,1.042,2.333,1.693,227.0,586.0
2015-03-12,LasVegas,USA,-115.1398,36.1699,[-115.6398 35.6699 -114.6398 36.6699],1.543,0.989,2.166,1.657,1.645,1.056,2.247,1.702,267.0,585.0
2015-03-13,LasVegas,USA,-115.1398,36.1699,[-115.6398 35.6699 -114.6398 36.6699],1.532,0.851,2.149,1.593,1.646,1.007,2.294,1.699,231.0,587.0
2015-03-14,LasVegas,USA,-115.1398,36.1699,[-115.6398 35.6699 -114.6398 36.6699],1.543,0.863,2.178,1.614,1.644,1.018,2.282,1.695,202.0,550.0
2015-03-15,LasVegas,USA,-115.1398,36.1699,[-115.6398 35.6699 -114.6398 36.6699],1.543,0.851,2.149,1.603,1.661,1.036,2.301,1.719,212.0,559.0
2015-03-16,LasVegas,USA,-115.1398,36.1699,[-115.6398 35.6699 -114.6398 36.6699],1.59,1.012,2.178,1.655,1.597,0.994,2.232,1.654,191.0,557.0
2015-03-17,LasVegas,USA,-115.1398,36.1699,[-115.6398 35.6699 -114.6398 36.6699],1.604,0.989,2.247,1.681,1.593,0.957,2.203,1.633,215.0,544.0
2015-03-18,LasVegas,USA,-115.1398,36.1699,[-115.6398 35.6699 -114.6398 36.6699],1.522,0.873,2.018,1.523,1.524,0.883,2.11,1.568,179.0,541.0
2015-03-19,LasVegas,USA,-115.1398,36.1699,[-115.6398 35.6699 -114.6398 36.6699],1.55,1.114,1.971,1.561,1.543,0.958,2.107,1.596,217.0,541.0
2015-03-20,LasVegas,USA,-115.1398,36.1699,[-115.6398 35.6699 -114.6398 36.6699],1.69,1.193,1.969,1.605,1.538,0.928,2.057,1.553,181.0,548.0
2015-03-21,LasVegas,USA,-115.1398,36.1699,[-115.6398 35.6699 -114.6398 36.6699],1.75,1.226,1.969,1.658,1.516,0.939,1.979,1.535,191.0,547.0
2015-03-22,LasVegas,USA,-115.1398,36.1699,[-115.6398 35.6699 -114.6398 36.6699],1.752,1.233,2.04,1.676,1.526,0.945,2.05,1.56,206.0,550.0
2015-03-23,LasVegas,USA,-115.1398,36.1699,[-115.6398 35.6699 -114.6398 36.6699],1.741,1.226,1.969,1.649,1.511,0.949,2.022,1.547,189.0,555.0
2015-03-24,LasVegas,USA,-115.1398,36.1699,[-115.6398 35.6699 -114.6398 36.6699],1.741,1.226,1.969,1.659,1.512,0.939,1.983,1.538,215.0,553.0
2015-03-25,LasVegas,USA,-115.1398,36.1699,[-115.6398 35.6699 -114.6398 36.6699],1.696,1.217,1.943,1.64,1.44,0.888,1.914,1.484,205.0,553.0
2015-03-26,LasVegas,USA,-115.1398,36.1699,[-115.6398 35.6699 -114.6398 36.6699],1.629,1.122,1.943,1.594,1.425,0.893,1.898,1.461,236.0,545.0
2015-03-27,LasVegas,USA,-115.1398,36.1699,[-115.6398 35.6699 -114.6398 36.6699],1.677,1.014,1.943,1.603,1.419,0.848,1.88,1.434,196.0,546.0
2015-03-28,LasVegas,USA,-115.1398,36.1699,[-115.6398 35.6699 -114.6398 36.6699],1.741,1.185,2.076,1.679,1.412,0.895,1.86,1.431,234.0,547.0
2015-03-29,LasVegas,USA,-115.1398,36.1699,[-115.6398 35.6699 -114.6398 36.6699],1.741,1.185,2.076,1.679,1.451,0.908,1.945,1.508,234.0,595.0
2015-03-30,LasVegas,USA,-115.1398,36.1699,[-115.6398 35.6699 -114.6398 36.6699],1.774,1.268,2.158,1.76,1.488,0.955,2.032,1.562,247.0,594.0
2015-03-31,LasVegas,USA,-115.1398,36.1699,[-115.6398 35.6699 -114.6398 36.6699],1.75,1.226,2.157,1.728,1.533,0.998,2.075,1.599,274.0,605.0
2015-04-01,LasVegas,USA,-115.1398,36.1699,[-115.6398 35.6699 -114.6398 36.6699],1.752,1.233,2.147,1.712,1.515,0.99,2.06,1.581,250.0,605.0
2015-04-02,LasVegas,USA,-115.1398,36.1699,[-115.6398 35.6699 -114.6398 36.6699],1.752,1.233,2.147,1.714,1.554,1.018,2.08,1.596,275.0,594.0
2015-04-03,LasVegas,USA,-115.1398,36.1699,[-115.6398 35.6699 -114.6398 36.6699],1.75,1.169,2.191,1.72,1.55,0.995,2.1,1.594,237.0,589.0
2015-04-04,LasVegas,USA,-115.1398,36.1699,[-115.6398 35.6699 -114.6398 36.6699],1.773,1.275,2.191,1.742,1.643,1.089,2.175,1.679,275.0,589.0
2015-04-05,LasVegas,USA,-115.1398,36.1699,[-115.6398 35.6699 -114.6398 36.6699],1.781,1.314,2.258,1.755,1.66,1.114,2.216,1.702,242.0,594.0
2015-04-06,LasVegas,USA,-115.1398,36.1699,[-115.6398 35.6699 -114.6398 36.6699],1.773,1.268,2.258,1.753,1.655,1.119,2.251,1.713,251.0,591.0
2015-04-07,LasVegas,USA,-115.1398,36.1699,[-115.6398 35.6699 -114.6398 36.6699],1.773,1.277,2.258,1.755,1.681,1.133,2.303,1.736,267.0,596.0
2015-04-08,LasVegas,USA,-115.1398,36.1699,[-115.6398 35.6699 -114.6398 36.6699],1.781,1.248,2.191,1.746,1.673,1.124,2.271,1.726,267.0,603.0
2015-04-09,LasVegas,USA,-115.1398,36.1699,[-115.6398 35.6699 -114.6398 36.6699],1.774,1.216,2.169,1.732,1.663,1.113,2.21,1.703,292.0,598.0
2015-04-10,LasVegas,USA,-115.1398,36.1699,[-115.6398 35.6699 -114.6398 36.6699],1.781,1.28,2.179,1.761,1.651,1.126,2.212,1.703,282.0,600.0
2015-04-11,LasVegas,USA,-115.1398,36.1699,[-115.6398 35.6699 -114.6398 36.6699],1.758,1.199,2.179,1.743,1.648,1.09,2.193,1.687,313.0,594.0
2015-04-12,LasVegas,USA,-115.1398,36.1699,[-115.6398 35.6699 -114.6398 36.6699],1.72,1.118,2.147,1.701,1.624,1.042,2.203,1.668,275.0,594.0
2015-04-13,LasVegas,USA,-115.1398,36.1699,[-115.6398 35.6699 -114.6398 36.6699],1.741,1.216,2.258,1.775,1.602,1.046,2.149,1.63,315.0,589.0
2015-04-14,LasVegas,USA,-115.1398,36.1699,[-115.6398 35.6699 -114.6398 36.6699],1.672,1.133,2.174,1.716,1.545,0.99,2.059,1.568,295.0,596.0
2015-04-15,LasVegas,USA,-115.1398,36.1699,[-115.6398 35.6699 -114.6398 36.6699],1.694,1.165,2.239,1.749,1.521,0.993,2.063,1.559,268.0,557.0
2015-04-16,LasVegas,USA,-115.1398,36.1699,[-115.6398 35.6699 -114.6398 36.6699],1.694,1.196,2.239,1.754,1.548,1.037,2.088,1.589,280.0,569.0
2015-04-17,LasVegas,USA,-115.1398,36.1699,[-115.6398 35.6699 -114.6398 36.6699],1.694,1.165,2.239,1.754,1.547,1.016,2.097,1.586,262.0,570.0
2015-04-18,LasVegas,USA,-115.1398,36.1699,[-115.6398 35.6699 -114.6398 36.6699],1.694,1.196,2.239,1.76,1.521,0.994,2.027,1.56,264.0,559.0
2015-04-19,LasVegas,USA,-115.1398,36.1699,[-115.6398 35.6699 -114.6398 36.6699],1.575,1.053,2.239,1.738,1.494,0.972,2.029,1.532,226.0,552.0
2015-04-20,LasVegas,USA,-115.1398,36.1699,[-115.6398 35.6699 -114.6398 36.6699],1.522,0.948,2.124,1.604,1.477,0.926,1.992,1.503,259.0,550.0
2015-04-21,LasVegas,USA,-115.1398,36.1699,[-115.6398 35.6699 -114.6398 36.6699],1.469,0.926,2.103,1.579,1.465,0.951,1.986,1.501,225.0,557.0
2015-04-22,LasVegas,USA,-115.1398,36.1699,[-115.6398 35.6699 -114.6398 36.6699],1.405,0.949,2.068,1.562,1.419,0.926,1.962,1.478,237.0,553.0
2015-04-23,LasVegas,USA,-115.1398,36.1699,[-115.6398 35.6699 -114.6398 36.6699],1.427,0.944,2.116,1.637,1.444,0.945,2.005,1.51,241.0,554.0
2015-04-24,LasVegas,USA,-115.1398,36.1699,[-115.6398 35.6699 -114.6398 36.6699],1.469,0.944,2.124,1.675,1.441,0.939,1.997,1.511,236.0,558.0
2015-04-25,LasVegas,USA,-115.1398,36.1699,[-115.6398 35.6699 -114.6398 36.6699],1.479,0.944,2.136,1.68,1.48,0.971,2.022,1.542,234.0,554.0
2015-04-26,LasVegas,USA,-115.1398,36.1699,[-115.6398 35.6699 -114.6398 36.6699],1.523,0.988,2.123,1.692,1.513,1.006,2.022,1.561,221.0,549.0
2015-04-27,LasVegas,USA,-115.1398,36.1699,[-115.6398 35.6699 -114.6398 36.6699],1.523,0.988,2.124,1.694,1.5,1.009,2.009,1.555,228.0,544.0
2015-04-28,LasVegas,USA,-115.1398,36.1699,[-115.6398 35.6699 -114.6398 36.6699],1.363,0.919,1.894,1.557,1.44,0.975,1.935,1.493,188.0,545.0
2015-04-29,LasVegas,USA,-115.1398,36.1699,[-115.6398 35.6699 -114.6398 36.6699],1.437,0.988,1.968,1.594,1.422,0.944,1.931,1.478,224.0,544.0
2015-04-30,LasVegas,USA,-115.1398,36.1699,[-115.6398 35.6699 -114.6398 36.6699],1.437,0.988,2.004,1.596,1.422,0.963,1.949,1.489,226.0,590.0
2015-05-01,LasVegas,USA,-115.1398,36.1699,[-115.6398 35.6699 -114.6398 36.6699],1.437,0.988,2.004,1.6,1.378,0.92,1.899,1.448,218.0,591.0
2015-05-02,LasVegas,USA,-115.1398,36.1699,[-115.6398 35.6699 -114.6398 36.6699],1.406,0.988,1.916,1.584,1.383,0.937,1.864,1.446,239.0,596.0
2015-05-03,LasVegas,USA,-115.1398,36.1699,[-115.6398 35.6699 -114.6398 36.6699],1.397,0.98,1.902,1.552,1.364,0.92,1.856,1.428,259.0,596.0
2015-05-04,LasVegas,USA,-115.1398,36.1699,[-115.6398 35.6699 -114.6398 36.6699],1.406,1.009,1.905,1.552,1.376,0.925,1.835,1.421,280.0,587.0
2015-05-05,LasVegas,USA,-115.1398,36.1699,[-115.6398 35.6699 -114.6398 36.6699],1.526,1.151,2.081,1.671,1.382,0.926,1.862,1.412,247.0,579.0
2015-05-06,LasVegas,USA,-115.1398,36.1699,[-115.6398 35.6699 -114.6398 36.6699],1.537,1.151,2.022,1.648,1.372,0.927,1.86,1.409,267.0,573.0
2015-05-07,LasVegas,USA,-115.1398,36.1699,[-115.6398 35.6699 -114.6398 36.6699],1.62,1.228,2.091,1.711,1.398,0.95,1.871,1.424,230.0,579.0
2015-05-08,LasVegas,USA,-115.1398,36.1699,[-115.6398 35.6699 -114.6398 36.6699],1.598,1.228,2.022,1.612,1.388,0.942,1.847,1.396,205.0,578.0
2015-05-09,LasVegas,USA,-115.1398,36.1699,[-115.6398 35.6699 -114.6398 36.6699],1.515,1.108,1.966,1.496,1.407,0.965,1.87,1.408,211.0,581.0
2015-05-10,LasVegas,USA,-115.1398,36.1699,[-115.6398 35.6699 -114.6398 36.6699],1.515,1.076,1.964,1.487,1.39,0.934,1.856,1.382,214.0,584.0
2015-05-11,LasVegas,USA,-115.1398,36.1699,[-115.6398 35.6699 -114.6398 36.6699],1.515,1.059,1.966,1.481,1.395,0.94,1.889,1.397,196.0,625.0
2015-05-12,LasVegas,USA,-115.1398,36.1699,[-115.6398 35.6699 -114.6398 36.6699],1.511,1.053,1.964,1.481,1.402,0.956,1.892,1.403,204.0,618.0
2015-05-13,LasVegas,USA,-115.1398,36.1699,[-115.6398 35.6699 -114.6398 36.6699],1.511,1.053,1.964,1.476,1.434,0.995,1.912,1.421,219.0,645.0
2015-05-14,LasVegas,USA,-115.1398,36.1699,[-115.6398 35.6699 -114.6398 36.6699],1.421,0.934,1.902,1.385,1.449,1.016,1.928,1.442,180.0,686.0
2015-05-15,LasVegas,USA,-115.1398,36.1699,[-115.6398 35.6699 -114.6398 36.6699],1.407,0.934,1.884,1.368,1.426,0.99,1.908,1.427,180.0,703.0
2015-05-16,LasVegas,USA,-115.1398,36.1699,[-115.6398 35.6699 -114.6398 36.6699],1.386,0.934,1.835,1.339,1.446,1.043,1.924,1.454,179.0,710.0
2015-05-17,LasVegas,USA,-115.1398,36.1699,[-115.6398 35.6699 -114.6398 36.6699],1.386,0.934,1.865,1.329,1.448,1.031,1.922,1.446,151.0,674.0
2015-05-18,LasVegas,USA,-115.1398,36.1699,[-115.6398 35.6699 -114.6398 36.6699],1.361,0.783,1.835,1.281,1.463,1.038,1.941,1.47,154.0,683.0
2015-05-19,LasVegas,USA,-115.1398,36.1699,[-115.6398 35.6699 -114.6398 36.6699],1.36,0.796,1.881,1.302,1.447,1.034,1.946,1.476,155.0,682.0
2015-05-20,LasVegas,USA,-115.1398,36.1699,[-115.6398 35.6699 -114.6398 36.6699],1.443,0.934,1.966,1.4,1.518,1.091,1.988,1.539,176.0,676.0
2015-05-21,LasVegas,USA,-115.1398,36.1699,[-115.6398 35.6699 -114.6398 36.6699],1.398,0.9,2.005,1.394,1.514,1.075,1.971,1.535,156.0,673.0
2015-05-22,LasVegas,USA,-115.1398,36.1699,[-115.6398 35.6699 -114.6398 36.6699],1.503,1.024,2.005,1.462,1.515,1.075,1.998,1.534,187.0,673.0
2015-05-23,LasVegas,USA,-115.1398,36.1699,[-115.6398 35.6699 -114.6398 36.6699],1.503,1.018,1.991,1.453,1.497,1.058,1.959,1.509,182.0,678.0
2015-05-24,LasVegas,USA,-115.1398,36.1699,[-115.6398 35.6699 -114.6398 36.6699],1.424,0.948,1.74,1.409,1.451,1.026,1.888,1.483,192.0,680.0
2015-05-25,LasVegas,USA,-115.1398,36.1699,[-115.6398 35.6699 -114.6398 36.6699],1.386,0.892,1.712,1.348,1.449,1.042,1.88,1.487,203.0,685.0
2015-05-26,LasVegas,USA,-115.1398,36.1699,[-115.6398 35.6699 -114.6398 36.6699],1.366,0.895,1.712,1.344,1.456,1.024,1.915,1.487,226.0,648.0
2015-05-27,LasVegas,USA,-115.1398,36.1699,[-115.6398 35.6699 -114.6398 36.6699],1.386,0.9,1.752,1.397,1.484,1.058,1.926,1.504,236.0,649.0
2015-05-28,LasVegas,USA,-115.1398,36.1699,[-115.6398 35.6699 -114.6398 36.6699],1.379,0.905,1.74,1.402,1.5,1.07,1.925,1.519,239.0,610.0
2015-05-29,LasVegas,USA,-115.1398,36.1699,[-115.6398 35.6699 -114.6398 36.6699],1.453,0.979,2.005,1.473,1.539,1.115,1.985,1.54,267.0,566.0
2015-05-30,LasVegas,USA,-115.1398,36.1699,[-115.6398 35.6699 -114.6398 36.6699],1.453,0.979,2.005,1.48,1.522,1.092,1.967,1.517,265.0,548.0
2015-05-31,LasVegas,USA,-115.1398,36.1699,[-115.6398 35.6699 -114.6398 36.6699],1.533,1.026,2.078,1.543,1.52,1.063,1.977,1.512,299.0,543.0
2015-06-01,LasVegas,USA,-115.1398,36.1699,[-115.6398 35.6699 -114.6398 36.6699],1.533,1.026,2.078,1.542,1.56,1.089,2.046,1.556,303.0,587.0
2015-06-02,LasVegas,USA,-115.1398,36.1699,[-115.6398 35.6699 -114.6398 36.6699],1.549,1.052,2.107,1.579,1.52,1.042,2.056,1.529,278.0,587.0
2015-06-03,LasVegas,USA,-115.1398,36.1699,[-115.6398 35.6699 -114.6398 36.6699],1.549,1.052,2.107,1.573,1.498,1.028,2.044,1.511,278.0,595.0
2015-06-04,LasVegas,USA,-115.1398,36.1699,[-115.6398 35.6699 -114.6398 36.6699],1.537,1.052,2.078,1.577,1.458,0.986,1.954,1.466,272.0,598.0
2015-06-05,LasVegas,USA,-115.1398,36.1699,[-115.6398 35.6699 -114.6398 36.6699],1.537,1.057,2.098,1.593,1.497,1.026,2.011,1.505,294.0,591.0
2015-06-06,LasVegas,USA,-115.1398,36.1699,[-115.6398 35.6699 -114.6398 36.6699],1.525,1.024,2.079,1.59,1.487,1.018,1.998,1.502,263.0,585.0
2015-06-07,LasVegas,USA,-115.1398,36.1699,[-115.6398 35.6699 -114.6398 36.6699],1.533,1.0,2.079,1.583,1.522,1.026,2.052,1.541,288.0,586.0
2015-06-08,LasVegas,USA,-115.1398,36.1699,[-115.6398 35.6699 -114.6398 36.6699],1.679,1.208,2.235,1.707,1.531,1.07,2.079,1.56,252.0,590.0
2015-06-09,LasVegas,USA,-115.1398,36.1699,[-115.6398 35.6699 -114.6398 36.6699],1.605,1.241,2.127,1.698,1.55,1.084,2.092,1.58,256.0,588.0
2015-06-10,LasVegas,USA,-115.1398,36.1699,[-115.6398 35.6699 -114.6398 36.6699],1.679,1.28,2.224,1.725,1.553,1.086,2.074,1.564,263.0,593.0
2015-06-11,LasVegas,USA,-115.1398,36.1699,[-115.6398 35.6699 -114.6398 36.6699],1.577,1.247,2.078,1.675,1.542,1.039,2.104,1.589,263.0,601.0
2015-06-12,LasVegas,USA,-115.1398,36.1699,[-115.6398 35.6699 -114.6398 36.6699],1.605,1.245,2.078,1.686,1.554,1.038,2.11,1.582,271.0,643.0
2015-06-13,LasVegas,USA,-115.1398,36.1699,[-115.6398 35.6699 -114.6398 36.6699],1.543,1.208,2.003,1.625,1.528,1.014,2.132,1.568,262.0,637.0
2015-06-14,LasVegas,USA,-115.1398,36.1699,[-115.6398 35.6699 -114.6398 36.6699],1.533,1.174,2.003,1.609,1.529,1.047,2.127,1.59,294.0,660.0
2015-06-15,LasVegas,USA,-115.1398,36.1699,[-115.6398 35.6699 -114.6398 36.6699],1.453,1.087,1.93,1.553,1.552,1.045,2.125,1.594,257.0,698.0
2015-06-16,LasVegas,USA,-115.1398,36.1699,[-115.6398 35.6699 -114.6398 36.6699],1.524,1.169,1.979,1.614,1.537,1.042,2.09,1.584,293.0,719.0
2015-06-17,LasVegas,USA,-115.1398,36.1699,[-115.6398 35.6699 -114.6398 36.6699],1.524,1.167,1.979,1.611,1.58,1.074,2.12,1.601,297.0,725.0
2015-06-18,LasVegas,USA,-115.1398,36.1699,[-115.6398 35.6699 -114.6398 36.6699],1.524,1.158,1.979,1.609,1.592,1.073,2.127,1.601,275.0,687.0